Retour au catalogue

TRIAD 1

ActifMilitairePO
NORAD 6173·PAYLOAD·🇺🇸 United States

Lancé Sep 2, 1972 depuis Vandenberg Space Force Base

Loading…

Prochains Passages (prochaines 24 heures)

TLE

FraisSource: Space-Track

Époque: Sep 14, 2026, 15:08 UTC

1 06173U 72069A   26257.63092795  .00000422  00000-0  97795-4 0  9993
2 06173  90.0271 208.9991 0052099  88.7664  83.8649 14.52724300843551

Suivez TRIAD 1 en temps réel avec AllMySat

Download on the App Store